NIMBUS 2 DEB, 28977

Orbit data source: Space-Track

NIMBUS 2 DEB, 28977 is space debris in SSO originally from a launch on Sun, 15 May 1966 UTC launched from the Air Force Western Test Range (AFWTR). Debris objects in space refer to the collection of defunct objects orbiting the Earth. Examples of debris include non-operational satellites, rocket bodies, and fragments generated from explosions, collisions, or faulty payload assembly.

Loading next visibility...
NIMBUS 2 DEB details
Identifier
28977, 1966-040AN
Orbit
SSO
Last TLE update12 hours ago
Origin
Flag of USGSFC (US)
ManufacturerUnknown
MissionSpacecraft
Bus & MotorUnknown
MassUnknown
Launch date (UTC)
1966-05-15 (59 years ago)
Launch vehicleUnknown
Launch site
Air Force Western Test Range (AFWTR)
Object type
Payload
Rocket body
Debris
Shape & HBRUnknown
Radar Cross SectionSmall (<0.1 m²)

Expand to show TLE details & history

TLE from 12 hours ago
0 NIMBUS 2 DEB
1 28977U 66040AN  24356.73524080  .00003265  00000-0  50823-2 0  9994
2 28977 100.4775 278.6413 0059847 294.4593  94.0481 13.50855546939536
Epoch: 2024-12-21T17:38Z
Definitive object data (Epoch: 2024-12-21T17:38:44.805Z)
Latitude28.70442°
Longitude-82.60967°
Altitude1,075.937 km
Speed7.315 km/s
True Right ascension18h 11m 26s
True Declination28° 33' 57"
Sunlit
Object was in daylight at TLE epoch
Visualization TLE readout
Latitude1.93806°
Longitude-76.64467°
Altitude1,055.315 km
Speed7.332 km/s
Apparent Right ascension17h 58m 20s
Apparent Declination-17° 32' 48"
Sunlit
Object is in daylight
Visualization observer readout
Local Sidereal Time05:01:58
Azimuth327.338° NNW
Elevation-64.52°
Doppler factor1
Orbital elements
Apogee altitude1,111.008 km
Perigee altitude1,021.9 km
Semi-major axis7,444.591 km
Eccentricity0.0059847
Inclination100.4775°
RAAN278.6413°
Arg. of periapsis294.4593°
True anomaly94.73181°
Mean anomaly94.0481°
Eccentric anomaly94.38999°
Mean motion3.37895 °/min
BSTAR0.0050823
Orbital period106.54 mins
Loading maneuver chart data...
Loading historical data...
Loading historical data...
Loading historical data...
Loading historical data...
Loading historical data...
Loading historical data...
Loading historical data...

NIMBUS 2 DEB Visibility forecast

Observer location: undefined°, undefined

Span
Click to sort rows by Start time (UTC) header in descending order
Start Az.
Max El. time (UTC)
Max El. Az.
Max El.
End time (UTC)
End Az.
8 mins2024-12-22 06:35:17.405Z54.489° ENE2024-12-22 06:39:17.405Z95.28° ESE18.828°2024-12-22 06:43:17.405Z134.523° SE
11 mins2024-12-22 08:19:17.405Z8.961° NNE2024-12-22 08:24:17.405Z305.884° NW42.973°2024-12-22 08:30:17.405Z209.185° SW
11 mins2024-12-22 18:30:17.405Z147.591° SSE2024-12-22 18:35:17.405Z88.811° E41.785°2024-12-22 18:41:17.405Z351.869° N
7 mins2024-12-22 20:18:17.405Z234.825° WSW2024-12-22 20:21:17.405Z268.802° W19.677°2024-12-22 20:25:17.405Z309.322° NW
|